Weather History for Kingsville NAS, TX

Change the Weather History Date:

Friday, April 19, 2013

  Actual Average Record
Temperature  
Mean Temperature 65 °F -  
Max Temperature 77 °F 81 °F 97 °F (2011)
Min Temperature 54 °F 63 °F 46 °F (2008)
Growing Degree Days 15 (Base 50)    
Moisture  
Dew Point 33 °F    
Average Humidity 37    
Maximum Humidity 62    
Minimum Humidity 14    
Precipitation  
Precipitation 0.00 in - - ()
Sea Level Pressure  
Sea Level Pressure 30.20 in    
Wind  
Wind Speed 12 mph (NNE)    
Max Wind Speed 20 mph    
Max Gust Speed 28 mph    
Visibility 10 miles    
Events      
Averages and records for this station are not official NWS values.
T = Trace of Precipitation, MM = Missing Value Source: NWS Daily Summary

Daily Weather History Graph

Daily Weather History Graph

Search for Another Location

Airport:

Trip Planner

Search our weather history database for the weather conditions in past years. The results will help you decide how hot, cold, wet, or windy it might be!

Date:

Astronomy

Apr. 19, 2013 Rise Set
Actual Time 7:02 AM CDT 7:58 PM CDT
Civil Twilight 6:38 AM CDT 8:22 PM CDT
Nautical Twilight 6:10 AM CDT 8:51 PM CDT
Astronomical Twilight 5:40 AM CDT 9:20 PM CDT
Moon 2:15 PM CDT (4/19) 2:45 AM CDT (4/19)
Length of Visible Light 13h 44m
Length of Day
12h 55m
First Quarter, 62% of the Moon is Illuminated
Apr 19
First Quarter
Apr 25
Full
May 2
Last Quarter
May 9
New
May 17
First Quarter

Hourly Weather History & Observations

Time (CDT) Temp. Dew Point Humidity Pressure Visibility Wind Dir Wind Speed Gust Speed Precip Events Conditions
12:56 AM 61.0 °F 44.1 °F 54% 30.09 in 10.0 mi North 8.1 mph - N/A   Clear
1:56 AM 61.0 °F 43.0 °F 52% 30.12 in 10.0 mi NNE 12.7 mph 20.7 mph N/A   Clear
2:56 AM 61.0 °F 41.0 °F 48% 30.11 in 10.0 mi North 16.1 mph 20.7 mph N/A   Scattered Clouds
3:56 AM 60.1 °F 39.9 °F 47% 30.12 in 10.0 mi NNE 16.1 mph 26.5 mph N/A   Overcast
4:56 AM 59.0 °F 37.0 °F 44% 30.14 in 10.0 mi NNE 19.6 mph 27.6 mph N/A   Clear
5:56 AM 57.9 °F 36.0 °F 44% 30.17 in 10.0 mi NNE 13.8 mph - N/A   Mostly Cloudy
6:30 AM 57.2 °F 35.6 °F 44% 30.19 in 10.0 mi NNE 15.0 mph 24.2 mph N/A   Mostly Cloudy
6:56 AM 57.0 °F 35.1 °F 44% 30.19 in 10.0 mi North 13.8 mph - N/A   Overcast
7:56 AM 55.9 °F 34.0 °F 44% 30.23 in 10.0 mi NNE 13.8 mph 19.6 mph N/A   Overcast
8:56 AM 55.9 °F 35.1 °F 45% 30.26 in 10.0 mi North 12.7 mph - N/A   Overcast
9:56 AM 57.0 °F 32.0 °F 39% 30.28 in 10.0 mi North 12.7 mph - N/A   Overcast
10:56 AM 61.0 °F 30.0 °F 31% 30.31 in 10.0 mi NNE 11.5 mph 18.4 mph N/A   Mostly Cloudy
11:56 AM 63.0 °F 26.1 °F 25% 30.32 in 10.0 mi NNE 15.0 mph 20.7 mph N/A   Mostly Cloudy
12:56 PM 64.9 °F 23.0 °F 20% 30.30 in 10.0 mi NNE 9.2 mph 18.4 mph N/A   Mostly Cloudy
1:56 PM 69.1 °F 25.0 °F 19% 30.26 in 10.0 mi ENE 8.1 mph - N/A   Scattered Clouds
2:56 PM 71.1 °F 26.1 °F 19% 30.22 in 10.0 mi Variable 4.6 mph - N/A   Scattered Clouds
3:56 PM 75.0 °F 26.1 °F 16% 30.18 in 10.0 mi NNW 8.1 mph 20.7 mph N/A   Scattered Clouds
4:56 PM 75.9 °F 23.0 °F 14% 30.16 in 10.0 mi NNW 12.7 mph 19.6 mph N/A   Scattered Clouds
5:56 PM 75.0 °F 23.0 °F 14% 30.14 in 10.0 mi North 11.5 mph 18.4 mph N/A   Partly Cloudy
6:56 PM 75.0 °F 23.0 °F 14% 30.14 in 10.0 mi East 8.1 mph - N/A   Clear
7:56 PM 66.0 °F 35.1 °F 32% 30.16 in 10.0 mi SE 9.2 mph - N/A   Clear
8:56 PM 61.0 °F 37.9 °F 42% 30.18 in 10.0 mi SE 8.1 mph - N/A   Clear
9:56 PM 57.9 °F 39.9 °F 51% 30.20 in 10.0 mi SSE 8.1 mph - N/A   Clear
10:56 PM 55.0 °F 39.9 °F 57% 30.21 in 10.0 mi SE 6.9 mph - N/A   Clear
11:56 PM 54.0 °F 41.0 °F 62% 30.22 in 10.0 mi South 5.8 mph - N/A   Clear